Flag for Germany Past Weather in Langenfeld (Rheinland), North Rhine-Westphalia, Germany — Yesterday and Last 2 Weeks

Now
70 °F

Broken clouds.


Feels Like: 70 °F
Forecast: 59 / 72 °F
Wind: 10 mph from South

Location: Duesseldorf

Current Time: Jul 28, 2016 at 2:34:36 PM

Latest Report: Jul 28, 2016 at 1:50 PM


Visibility: N/A

Pressure: 29.98 "Hg

Humidity: 83%

Dew Point: 64 °F

Location of Langenfeld (Rheinland)Location

Past Weather in Langenfeld (Rheinland) — Graph

°F

Langenfeld (Rheinland) Temperature Yesterday

Maximum temperature yesterday: 75 °F (at 2:50 PM)
Minimum temperature yesterday: 61 °F (at 3:20 AM)
Average temperature yesterday: 68 °F

High & Low Weather Summary for the Past Weeks

 TemperatureHumidityPressure
High95 °F (Jul 20, 4:20 PM)100% (Jul 14, 3:20 AM)30.30 "Hg (Jul 14, 3:20 AM)
Low46 °F (Jul 14, 4:20 AM)30% (Jul 20, 2:50 PM)29.83 "Hg (Jul 20, 5:20 PM)
Average70 °F72%30.09 "Hg
* Reported Jul 13 1:20 PM — Jul 28 1:20 PM, Langenfeld (Rheinland), Weather by CustomWeather, © 2016

Note: Actual official high and low records may vary slightly from our data, if they occured in-between our weather recording intervals... More about our weather records

Advertising

Langenfeld (Rheinland) Weather History for the Previous 24 Hours

Scroll right to see more
 ConditionsComfort  
Time TempWeatherWind HumidityBarometerVisibility
1:20 PM
Thu, Jul 28
68 °FBroken clouds.13 mph88%29.98 "HgN/A
12:50 PM68 °FBroken clouds.12 mph88%29.98 "HgN/A
12:20 PM66 °FBroken clouds.10 mph94%29.98 "HgN/A
11:50 AM66 °FLight rain. Partly sunny.12 mph88%29.98 "HgN/A
11:20 AM66 °FPartly sunny.10 mph88%29.98 "HgN/A
10:50 AM64 °FDrizzle. Partly sunny.9 mph100%29.98 "HgN/A
10:20 AM64 °FLight rain. Partly sunny.9 mph94%29.98 "Hg6 mi
9:50 AM64 °FPartly sunny.8 mph94%29.98 "HgN/A
9:20 AM64 °FDrizzle. Partly sunny.9 mph94%29.98 "Hg4 mi
8:50 AM64 °FLight rain. Partly sunny.9 mph94%29.98 "Hg6 mi
8:20 AM64 °FLight rain. Broken clouds.7 mph94%29.98 "HgN/A
7:50 AM64 °FBroken clouds.7 mph94%29.98 "HgN/A
7:20 AM64 °FLight rain. Broken clouds.5 mph94%29.98 "HgN/A
6:50 AM64 °FLight rain. Partly cloudy.5 mph94%29.98 "HgN/A
6:20 AM64 °FLight rain. Passing clouds.6 mph94%30.01 "Hg6 mi
5:50 AM64 °FLight rain. Passing clouds.5 mph94%30.01 "Hg4 mi
5:20 AM64 °FLight rain. Partly cloudy.5 mph94%30.01 "HgN/A
4:50 AM63 °FLight rain. Passing clouds.2 mph100%30.01 "HgN/A
4:20 AM63 °FLight rain. Partly cloudy.3 mph100%30.01 "HgN/A
3:50 AM63 °FLight rain. Partly cloudy.12 mph100%30.01 "Hg4 mi
3:20 AM64 °FPassing clouds.6 mph88%30.01 "HgN/A
2:50 AM64 °FLight rain. Passing clouds.6 mph88%30.01 "HgN/A
2:20 AM64 °FLight rain. Partly cloudy.8 mph88%30.01 "HgN/A
1:50 AM66 °FLight rain. Passing clouds.9 mph78%30.01 "HgN/A
1:20 AM66 °FLight rain. Passing clouds.5 mph78%30.01 "HgN/A
12:50 AM68 °FPartly cloudy.6 mph73%30.04 "HgN/A
12:20 AM68 °FPassing clouds.6 mph69%30.04 "HgN/A
11:50 PM
Wed, Jul 27
68 °FPassing clouds.6 mph73%30.04 "HgN/A
11:20 PM68 °FPassing clouds.7 mph69%30.04 "HgN/A
10:50 PM68 °FPassing clouds.7 mph69%30.04 "HgN/A
10:20 PM68 °FPartly sunny.8 mph69%30.04 "HgN/A
9:50 PM70 °FPartly sunny.14 mph64%30.04 "HgN/A
9:20 PM70 °FPartly sunny.9 mph64%30.01 "HgN/A
8:50 PM70 °FPartly sunny.9 mph64%30.01 "HgN/A
8:20 PM72 °FPartly sunny.9 mph61%30.01 "HgN/A
7:50 PM72 °FPartly sunny.10 mph61%30.01 "HgN/A
7:20 PM72 °FPartly sunny.12 mph57%30.01 "HgN/A
6:50 PM73 °FPartly sunny.13 mph57%30.01 "HgN/A
6:20 PM73 °FScattered clouds.13 mph53%30.01 "HgN/A
5:50 PM73 °FPartly sunny.12 mph57%30.01 "HgN/A
5:20 PM73 °FPartly sunny.15 mph57%30.01 "HgN/A
4:50 PM75 °FPartly sunny.14 mph54%30.01 "HgN/A
4:20 PM73 °FBroken clouds.15 mph53%30.01 "HgN/A
3:50 PM75 °FPartly sunny.15 mph54%30.01 "HgN/A
3:20 PM73 °FPartly sunny.14 mph53%30.01 "HgN/A
2:50 PM75 °FPartly sunny.15 mph50%30.01 "HgN/A
2:20 PM73 °FPartly sunny.13 mph53%30.04 "HgN/A
Weather by CustomWeather, © 2016

See weather overviewHow to use our weather pages